EW1134 Weather Reports


Display with metric or nautical units.
time (UTC)temp
F
wind
direction
speed
MPH
gust
MPH
rain 1hr
in
rain 24hr
in
rain mn
in
humidity
%
barometer
mb
20260504212503 49 237 1.0 5.0 0.00 0.00 0.00 55 1018.0
20260504212003 50 257 2.0 5.0 0.00 0.00 0.00 54 1018.1
20260504211503 50 266 2.0 5.0 0.00 0.00 0.00 54 1018.1
20260504211002 50 255 2.0 5.0 0.00 0.00 0.00 54 1018.4
20260504210504 50 237 2.0 4.0 0.00 0.00 0.00 53 1018.4
20260504210004 50 228 1.0 4.0 0.00 0.00 0.00 52 1018.2
20260504204504 51 235 1.0 4.0 0.00 0.00 0.00 50 1018.5
20260504204003 51 238 1.0 4.0 0.00 0.00 0.00 51 1018.3
20260504203503 51 230 1.0 5.0 0.00 0.00 0.00 51 1018.1
20260504203004 51 225 2.0 5.0 0.00 0.00 0.00 51 1018.4
20260504202503 51 225 2.0 5.0 0.00 0.00 0.00 51 1018.4
20260504202003 51 225 1.0 5.0 0.00 0.00 0.00 51 1018.3
20260504201504 51 229 1.0 5.0 0.00 0.00 0.00 51 1018.5
20260504201003 51 231 1.0 5.0 0.00 0.00 0.00 51 1018.5
20260504200503 51 230 1.0 5.0 0.00 0.00 0.00 51 1018.4
20260504200004 51 230 0.0 4.0 0.00 0.00 0.00 50 1018.4
20260504195503 51 254 1.0 4.0 0.00 0.00 0.00 50 1018.2
20260504195003 51 276 1.0 4.0 0.00 0.00 0.00 50 1018.1
20260504194504 52 244 2.0 4.0 0.00 0.00 0.00 50 1018.2
20260504194004 52 230 2.0 6.0 0.00 0.00 0.00 49 1018.1
20260504193503 52 233 2.0 6.0 0.00 0.00 0.00 49 1018.3
20260504193004 52 230 1.0 4.0 0.00 0.00 0.00 50 1018.3
20260504192003 52 216 0.0 4.0 0.00 0.00 0.00 49 1018.3
20260504191505 52 189 0.0 3.0 0.00 0.00 0.00 48 1018.1
20260504191003 53 178 0.0 3.0 0.00 0.00 0.00 48 1018.3
20260504190504 53 150 1.0 4.0 0.00 0.00 0.00 48 1018.2
20260504190004 53 152 2.0 5.0 0.00 0.00 0.00 48 1018.3
20260504185503 53 207 1.0 5.0 0.00 0.00 0.00 48 1018.2
20260504185003 53 252 0.0 4.0 0.00 0.00 0.00 47 1018.1
20260504184503 53 225 0.0 2.0 0.00 0.00 0.00 48 1018.1
20260504184003 54 221 0.0 3.0 0.00 0.00 0.00 47 1017.9
20260504183503 54 166 1.0 4.0 0.00 0.00 0.00 46 1018.0
20260504183003 55 151 1.0 4.0 0.00 0.00 0.00 46 1018.2
20260504182503 55 178 2.0 5.0 0.00 0.00 0.00 46 1017.9
20260504182003 56 207 3.0 5.0 0.00 0.00 0.00 45 1017.8
20260504181503 56 225 2.0 6.0 0.00 0.00 0.00 43 1017.7
20260504181005 57 237 2.0 6.0 0.00 0.00 0.00 42 1017.7
20260504180505 58 233 2.0 5.0 0.00 0.00 0.00 40 1017.8
20260504180006 58 225 2.0 4.0 0.00 0.00 0.00 39 1017.8
20260504175509 59 225 2.0 4.0 0.00 0.00 0.00 38 1017.9
20260504175003 59 225 2.0 4.0 0.00 0.00 0.00 36 1017.8
20260504174504 59 228 1.0 4.0 0.00 0.00 0.00 34 1018.0
20260504174005 59 236 0.0 4.0 0.00 0.00 0.00 31 1017.8
20260504173505 60 0 0.0 0.0 0.00 0.00 0.00 31 1017.9
20260504172506 61 0 0.0 0.0 0.00 0.00 0.00 30 1017.9
20260504172003 61 0 0.0 0.0 0.00 0.00 0.00 30 1017.8
20260504171504 61 314 0.0 2.0 0.00 0.00 0.00 29 1017.7
20260504171003 62 314 0.0 3.0 0.00 0.00 0.00 28 1017.8
20260504170503 62 314 1.0 4.0 0.00 0.00 0.00 27 1017.8
20260504151003 66 8 5.0 10.0 0.00 0.00 0.00 24 1018.0
20260504150503 66 22 5.0 9.0 0.00 0.00 0.00 24 1017.8
20260504141002 67 349 7.0 15.0 0.00 0.00 0.00 19 1018.2
20260504130503 67 330 8.0 18.0 0.00 0.00 0.00 19 1018.2
20260504110503 66 310 5.0 12.0 0.00 0.00 0.00 28 1019.4
20260504100502 65 313 7.0 19.0 0.00 0.00 0.00 29 1019.8
20260504082002 63 41 3.0 11.0 0.00 0.00 0.00 40 1020.1
20260504081503 62 31 5.0 13.0 0.00 0.00 0.00 41 1020.0
20260504081003 62 4 6.0 14.0 0.00 0.00 0.00 42 1020.0
20260504050503 48 276 0.0 4.0 0.00 0.00 0.00 73 1019.5
20260504050003 47 263 2.0 6.0 0.00 0.00 0.00 73 1019.3
20260504045503 46 266 2.0 6.0 0.00 0.00 0.00 74 1019.3
20260504045003 46 254 1.0 4.0 0.00 0.00 0.00 75 1019.2
20260504044504 45 260 2.0 6.0 0.00 0.00 0.00 75 1019.2
20260504044003 45 274 2.0 6.0 0.00 0.00 0.00 76 1019.2
20260504043004 49 289 1.0 5.0 0.00 0.00 0.00 77 1019.2
20260504042503 49 267 1.0 5.0 0.00 0.00 0.00 77 1019.1
20260504041504 49 282 1.0 4.0 0.00 0.00 0.00 78 1019.1
20260504041003 49 278 1.0 4.0 0.00 0.00 0.00 78 1019.2
20260504040503 49 272 1.0 4.0 0.00 0.00 0.00 78 1019.0
20260504040004 49 272 2.0 6.0 0.00 0.00 0.00 78 1019.2
20260504035503 49 282 3.0 7.0 0.00 0.00 0.00 78 1018.9
20260504035002 49 291 3.0 7.0 0.00 0.00 0.00 78 1019.1
20260504034503 49 283 2.0 7.0 0.00 0.00 0.00 78 1019.1
20260504034003 49 270 3.0 8.0 0.00 0.00 0.00 78 1018.9
20260504032502 49 248 1.0 6.0 0.00 0.00 0.00 77 1019.0
20260504031504 49 244 1.0 5.0 0.00 0.00 0.00 77 1018.9
20260504031003 49 267 1.0 7.0 0.00 0.00 0.00 77 1018.7
20260504030503 49 270 1.0 7.0 0.00 0.00 0.00 77 1018.8
20260504030003 49 262 1.0 4.0 0.00 0.00 0.00 77 1018.7
20260504025503 49 266 1.0 4.0 0.00 0.00 0.00 76 1018.8
20260504025003 49 297 1.0 3.0 0.00 0.00 0.00 76 1018.7
20260504024503 49 298 1.0 4.0 0.00 0.00 0.00 76 1018.7
20260504023503 49 250 1.0 4.0 0.00 0.00 0.00 76 1018.8
20260504023004 49 239 1.0 4.0 0.00 0.00 0.00 75 1019.1
20260504022503 49 247 1.0 4.0 0.00 0.00 0.00 75 1018.8
20260504022002 49 241 1.0 4.0 0.00 0.00 0.00 75 1018.8
20260504021504 49 227 2.0 4.0 0.00 0.00 0.00 75 1018.8
20260504021003 49 244 3.0 6.0 0.00 0.00 0.00 75 1018.8
20260504020003 49 248 2.0 7.0 0.00 0.00 0.00 74 1018.9
20260504015502 49 231 2.0 5.0 0.00 0.00 0.00 74 1018.8
20260504013502 49 245 2.0 5.0 0.00 0.00 0.00 75 1018.9
20260504012502 49 250 2.0 7.0 0.00 0.00 0.00 75 1019.0
20260504011503 49 237 1.0 4.0 0.00 0.00 0.00 74 1018.9
20260504011003 49 244 1.0 4.0 0.00 0.00 0.00 74 1019.1
20260504005502 49 243 1.0 6.0 0.00 0.00 0.00 74 1018.9
20260504005003 49 249 1.0 4.0 0.00 0.00 0.00 74 1018.7
20260504004503 49 249 1.0 4.0 0.00 0.00 0.00 74 1018.7
20260504003502 49 237 1.0 6.0 0.00 0.00 0.00 73 1018.8
20260504002003 49 238 2.0 4.0 0.00 0.00 0.00 73 1018.6
20260504001003 49 235 2.0 5.0 0.00 0.00 0.00 73 1018.9
20260504000503 49 253 2.0 5.0 0.00 0.00 0.00 73 1018.8
20260504000004 49 259 2.0 5.0 0.00 0.00 0.00 73 1018.8
20260503235503 49 260 2.0 6.0 0.00 0.00 0.00 73 1018.9
20260503235003 49 265 2.0 6.0 0.00 0.00 0.00 73 1018.7
20260503234002 49 251 1.0 6.0 0.00 0.00 0.00 73 1018.8
20260503233503 49 263 2.0 5.0 0.00 0.00 0.00 73 1018.7
20260503233003 49 270 2.0 4.0 0.00 0.00 0.00 73 1018.7
20260503232502 49 263 3.0 6.0 0.00 0.00 0.00 73 1018.8
20260503232003 49 256 3.0 6.0 0.00 0.00 0.00 73 1019.0
20260503231503 49 242 2.0 6.0 0.00 0.00 0.00 73 1018.9
20260503231003 49 235 2.0 7.0 0.00 0.00 0.00 73 1018.8
20260503230502 49 239 2.0 7.0 0.00 0.00 0.00 74 1018.8
20260503230003 49 248 1.0 5.0 0.00 0.00 0.00 74 1018.8
20260503225503 49 268 2.0 4.0 0.00 0.00 0.00 74 1018.9
20260503225003 49 271 2.0 5.0 0.00 0.00 0.00 74 1019.0
20260503224503 49 279 2.0 5.0 0.00 0.00 0.00 74 1019.0
20260503224002 49 258 2.0 5.0 0.00 0.00 0.00 73 1019.0
20260503223503 49 236 1.0 5.0 0.00 0.00 0.00 73 1018.9
20260503223004 49 238 1.0 5.0 0.00 0.00 0.00 73 1018.9
20260503222003 49 212 0.0 2.0 0.00 0.00 0.00 72 1019.1
20260503221504 49 169 0.0 2.0 0.00 0.00 0.00 72 1018.9
20260503221003 49 171 0.0 1.0 0.00 0.00 0.00 71 1019.0
20260503220502 49 141 0.0 2.0 0.00 0.00 0.00 71 1019.0
20260503220003 49 198 0.0 3.0 0.00 0.00 0.00 71 1019.0
20260503215503 49 248 0.0 3.0 0.00 0.00 0.00 71 1019.0
20260503215002 49 269 0.0 2.0 0.00 0.00 0.00 70 1019.1
20260503214503 49 276 0.0 4.0 0.00 0.00 0.00 70 1018.8
20260503213502 49 221 1.0 5.0 0.00 0.00 0.00 71 1019.0
20260503213004 49 234 0.0 5.0 0.00 0.00 0.00 71 1019.0